Weather History for Mount Vernon, IL

Change the Weather History Date:

Sunday, October 14, 2012

  Actual Average Record
Temperature  
Mean Temperature 65 °F -  
Max Temperature 73 °F 66 °F 84 °F (2007)
Min Temperature 55 °F 43 °F 24 °F (2006)
Growing Degree Days 15 (Base 50)    
Moisture  
Dew Point 58 °F    
Average Humidity 74    
Maximum Humidity 88    
Minimum Humidity 60    
Precipitation  
Precipitation 0.00 in - - ()
Sea Level Pressure  
Sea Level Pressure 29.82 in    
Wind  
Wind Speed 16 mph (SW)    
Max Wind Speed 31 mph    
Max Gust Speed 44 mph    
Visibility 10 miles    
Events      
Averages and records for this station are not official NWS values.
T = Trace of Precipitation, MM = Missing Value Source: NWS Daily Summary

Daily Weather History Graph

Daily Weather History Graph

Search for Another Location

Airport:

Trip Planner

Search our weather history database for the weather conditions in past years. The results will help you decide how hot, cold, wet, or windy it might be!

Date:

Astronomy

Oct. 14, 2012 Rise Set
Actual Time 7:03 AM CDT 6:18 PM CDT
Civil Twilight 6:37 AM CDT 6:44 PM CDT
Nautical Twilight 6:06 AM CDT 7:15 PM CDT
Astronomical Twilight 5:35 AM CDT 7:45 PM CDT
Moon 6:03 AM CDT (10/14) 5:38 PM CDT (10/14)
Length of Visible Light 12h 07m
Length of Day
11h 14m
Waning Crescent, 1% of the Moon is Illuminated
Oct 14
Waning Crescent
Oct 15
New
Oct 21
First Quarter
Oct 29
Full
Nov 6
Last Quarter

Hourly Weather History & Observations

Time (CDT) Temp. Dew Point Humidity Pressure Visibility Wind Dir Wind Speed Gust Speed Precip Events Conditions
12:15 AM 69.8 °F 60.8 °F 73% 29.86 in 10.0 mi South 15.0 mph 20.7 mph N/A   Clear
12:35 AM 69.8 °F 60.8 °F 73% 29.86 in 10.0 mi South 15.0 mph 24.2 mph N/A   Clear
12:55 AM 71.6 °F 60.8 °F 69% 29.86 in 10.0 mi South 16.1 mph 25.3 mph N/A   Clear
1:15 AM 71.6 °F 60.8 °F 69% 29.86 in 10.0 mi South 19.6 mph 25.3 mph N/A   Clear
1:35 AM 71.6 °F 60.8 °F 69% 29.86 in 10.0 mi South 17.3 mph 25.3 mph N/A   Mostly Cloudy
1:55 AM 71.6 °F 60.8 °F 69% 29.85 in 10.0 mi South 15.0 mph 20.7 mph N/A   Overcast
2:35 AM 71.6 °F 60.8 °F 69% 29.85 in 10.0 mi SSW 19.6 mph 24.2 mph N/A   Mostly Cloudy
2:55 AM 71.6 °F 62.6 °F 73% 29.86 in 10.0 mi SSW 19.6 mph 27.6 mph N/A   Overcast
3:15 AM 69.8 °F 62.6 °F 78% 29.85 in 9.0 mi SSW 18.4 mph 25.3 mph N/A   Overcast
3:35 AM 68.0 °F 62.6 °F 83% 29.85 in 10.0 mi SSW 16.1 mph 23.0 mph N/A   Overcast
3:55 AM 66.2 °F 62.6 °F 88% 29.84 in 10.0 mi SSW 12.7 mph - N/A   Overcast
4:15 AM 68.0 °F 62.6 °F 83% 29.83 in 10.0 mi SSW 12.7 mph - N/A   Overcast
4:35 AM 68.0 °F 62.6 °F 83% 29.84 in 10.0 mi SSW 24.2 mph 39.1 mph N/A   Mostly Cloudy
4:55 AM 66.2 °F 62.6 °F 88% 29.83 in 10.0 mi SSW 24.2 mph 34.5 mph N/A   Mostly Cloudy
5:15 AM 66.2 °F 62.6 °F 88% 29.84 in 10.0 mi SW 20.7 mph 25.3 mph N/A   Overcast
5:35 AM 64.4 °F 60.8 °F 88% 29.81 in 10.0 mi SSW 8.1 mph - N/A   Overcast
5:55 AM 64.4 °F 60.8 °F 88% 29.82 in 10.0 mi South 12.7 mph - N/A   Overcast
6:15 AM 66.2 °F 60.8 °F 83% 29.80 in 10.0 mi South 12.7 mph 20.7 mph N/A   Overcast
6:35 AM 66.2 °F 60.8 °F 83% 29.81 in 10.0 mi South 19.6 mph 27.6 mph N/A   Overcast
6:55 AM 66.2 °F 60.8 °F 83% 29.78 in 10.0 mi South 13.8 mph 24.2 mph N/A   Overcast
7:15 AM 66.2 °F 60.8 °F 83% 29.75 in 10.0 mi South 13.8 mph 20.7 mph N/A   Overcast
7:35 AM 66.2 °F 60.8 °F 83% 29.74 in 10.0 mi South 17.3 mph 25.3 mph N/A   Scattered Clouds
7:55 AM 66.2 °F 60.8 °F 83% 29.73 in 10.0 mi South 15.0 mph 25.3 mph N/A   Clear
8:15 AM 66.2 °F 60.8 °F 83% 29.75 in 10.0 mi South 18.4 mph 25.3 mph N/A   Clear
8:35 AM 66.2 °F 62.6 °F 88% 29.75 in 10.0 mi SSW 16.1 mph 25.3 mph N/A   Clear
8:55 AM 68.0 °F 62.6 °F 83% 29.76 in 10.0 mi SSW 18.4 mph 25.3 mph N/A   Mostly Cloudy
9:15 AM 68.0 °F 62.6 °F 83% 29.77 in 10.0 mi SSW 21.9 mph 33.4 mph N/A   Mostly Cloudy
9:55 AM 68.0 °F 60.8 °F 78% 29.78 in 10.0 mi SSW 31.1 mph 38.0 mph N/A   Overcast
10:15 AM 66.2 °F 59.0 °F 78% 29.78 in 10.0 mi SSW 23.0 mph 43.7 mph N/A   Overcast
10:55 AM 69.8 °F 59.0 °F 68% 29.78 in 10.0 mi SSW 28.8 mph 38.0 mph N/A   Overcast
11:15 AM 69.8 °F 59.0 °F 68% 29.78 in 10.0 mi SSW 23.0 mph 36.8 mph N/A   Overcast
11:35 AM 69.8 °F 59.0 °F 68% 29.77 in 10.0 mi SSW 28.8 mph 41.4 mph N/A   Overcast
11:55 AM 69.8 °F 59.0 °F 68% 29.77 in 10.0 mi SSW 24.2 mph 36.8 mph N/A   Overcast
12:15 PM 69.8 °F 59.0 °F 68% 29.76 in 10.0 mi SSW 31.1 mph 38.0 mph N/A   Overcast
12:35 PM 71.6 °F 59.0 °F 64% 29.76 in 10.0 mi SSW 24.2 mph 36.8 mph N/A   Overcast
12:55 PM 71.6 °F 59.0 °F 64% 29.75 in 10.0 mi SW 24.2 mph 33.4 mph N/A   Overcast
1:15 PM 71.6 °F 60.8 °F 69% 29.74 in 10.0 mi SSW 25.3 mph 35.7 mph N/A   Mostly Cloudy
1:35 PM 71.6 °F 57.2 °F 60% 29.74 in 10.0 mi SW 24.2 mph 31.1 mph N/A   Overcast
1:55 PM 73.4 °F 59.0 °F 61% 29.72 in 10.0 mi SSW 21.9 mph 32.2 mph N/A   Mostly Cloudy
2:15 PM 73.4 °F 60.8 °F 65% 29.72 in 10.0 mi SW 24.2 mph 32.2 mph N/A   Mostly Cloudy
2:35 PM 71.6 °F 59.0 °F 64% 29.72 in 10.0 mi SSW 25.3 mph 35.7 mph N/A   Overcast
2:55 PM 71.6 °F 59.0 °F 64% 29.72 in 10.0 mi SW 21.9 mph 28.8 mph N/A   Overcast
3:15 PM 71.6 °F 57.2 °F 60% 29.72 in 10.0 mi SW 20.7 mph 29.9 mph N/A   Overcast
3:35 PM 71.6 °F 57.2 °F 60% 29.72 in 10.0 mi SW 20.7 mph 25.3 mph N/A   Mostly Cloudy
3:55 PM 71.6 °F 57.2 °F 60% 29.73 in 10.0 mi SW 18.4 mph 29.9 mph N/A   Overcast
4:15 PM 64.4 °F 60.8 °F 88% 29.75 in 10.0 mi WSW 13.8 mph 32.2 mph N/A   Mostly Cloudy
4:35 PM 68.0 °F 60.8 °F 78% 29.76 in 10.0 mi WSW 10.4 mph - N/A   Partly Cloudy
4:55 PM 69.8 °F 55.4 °F 60% 29.77 in 10.0 mi West 12.7 mph 20.7 mph N/A   Clear
5:15 PM 68.0 °F 55.4 °F 64% 29.79 in 10.0 mi West 15.0 mph 21.9 mph N/A   Mostly Cloudy
5:35 PM 64.4 °F 55.4 °F 73% 29.80 in 10.0 mi West 8.1 mph - N/A   Overcast
5:55 PM 64.4 °F 55.4 °F 73% 29.81 in 10.0 mi West 4.6 mph 16.1 mph N/A   Overcast
6:15 PM 64.4 °F 57.2 °F 77% 29.82 in 10.0 mi West 8.1 mph - N/A   Overcast
6:35 PM 64.4 °F 55.4 °F 73% 29.83 in 10.0 mi West 8.1 mph 17.3 mph N/A   Overcast
6:55 PM 64.4 °F 55.4 °F 73% 29.85 in 10.0 mi West 5.8 mph - N/A   Mostly Cloudy
7:15 PM 64.4 °F 55.4 °F 73% 29.86 in 10.0 mi West 11.5 mph 23.0 mph N/A   Overcast
7:35 PM 62.6 °F 53.6 °F 72% 29.87 in 10.0 mi West 6.9 mph - N/A   Scattered Clouds
7:55 PM 62.6 °F 51.8 °F 68% 29.88 in 10.0 mi West 5.8 mph - N/A   Mostly Cloudy
8:15 PM 62.6 °F 51.8 °F 68% 29.88 in 10.0 mi WSW 4.6 mph - N/A   Mostly Cloudy
8:35 PM 62.6 °F 51.8 °F 68% 29.90 in 10.0 mi West 5.8 mph - N/A   Scattered Clouds
8:55 PM 62.6 °F 51.8 °F 68% 29.90 in 10.0 mi West 3.5 mph - N/A   Scattered Clouds
9:15 PM 60.8 °F 51.8 °F 72% 29.90 in 10.0 mi Calm Calm - N/A   Partly Cloudy
9:35 PM 59.0 °F 51.8 °F 77% 29.91 in 10.0 mi West 3.5 mph - N/A   Mostly Cloudy
9:55 PM 57.2 °F 51.8 °F 82% 29.91 in 10.0 mi WSW 3.5 mph - N/A   Mostly Cloudy
10:15 PM 59.0 °F 51.8 °F 77% 29.92 in 10.0 mi Calm Calm - N/A   Mostly Cloudy
10:35 PM 57.2 °F 51.8 °F 82% 29.93 in 10.0 mi Calm Calm - N/A   Mostly Cloudy
10:55 PM 57.2 °F 51.8 °F 82% 29.94 in 10.0 mi Calm Calm - N/A   Mostly Cloudy
11:15 PM 57.2 °F 51.8 °F 82% 29.94 in 10.0 mi Calm Calm - N/A   Mostly Cloudy
11:35 PM 57.2 °F 50.0 °F 77% 29.94 in 10.0 mi Calm Calm - N/A   Clear
11:55 PM 55.4 °F 48.2 °F 77% 29.94 in 10.0 mi Calm Calm - N/A   Clear